Location: ??
(35.1714°N, 128.2806°E)
Time: 15:23:57
(UTC+00:00)

Meteor 1-24 Rocket - Pass Details

Date: 29 October 2020
Orbit: 791 x 927 km, 81.3° (Epoch: 30 November)

Event Time Altitude Azimuth Distance (km) Brightness Sun altitude
Rises 20:38:02 0° 212° (SSW) 3,370 6.6 -14.5°
Reaches altitude 10° 20:40:38 10° 222° (SW) 2,461 5.8 -13.9°
Maximum altitude 20:45:36 32° 285° (WNW) 1,435 4.4 -12.9°
Drops below altitude 10° 20:50:47 10° 348° (NNW) 2,557 6.0 -11.9°
Sets 20:53:33 0° 358° (N) 3,521 6.8 -11.3°
